Location: Downe
(51.3167°N, 0.0500°E)
Time: 09:51:48
(UTC+00:00)

COSMOS 2406 - Pass Details

Date: 17 November 2019
Orbit: 843 x 864 km, 71.0° (Epoch: 08 December)

Event Time Altitude Azimuth Distance (km) Brightness Sun altitude
Exits shadow 04:22:26 33° 349° (N) 1,415 4.2 -27.4°
Drops below altitude 10° 04:26:12 10° 21° (NNE) 2,513 5.9 -26.8°
Sets 04:28:50 0° 29° (NNE) 3,451 6.8 -26.4°
